Location: ČR
(50.0000°N, 15.0000°E)
Time: 06:53:42
(UTC+02:00)

A-11 Canister half - Pass Details

Date: 21 March 2026
Orbit: 1514 x 1685 km, 47.2° (Epoch: 18 April)

Event Time Altitude Azimuth Distance (km) Brightness Sun altitude
Rises 11:38:55 0° 209° (SSW) 4,774 12.2 40.0°
Reaches altitude 10° 11:42:17 10° 201° (SSW) 3,817 12.0 40.0°
Maximum altitude 11:50:49 36° 140° (SE) 2,401 11.4 40.2°
Drops below altitude 10° 11:59:35 10° 79° (E) 3,932 11.2 40.3°
Sets 12:03:06 0° 71° (ENE) 4,935 11.5 40.3°
